This is the latest recevied weather packets stored in our database for station/object KC9MWQ-13. If no packets are shown the sender has not sent any weather packets the latest 10 day(s).
| Time | Temp. | Humidity | Pressure | Rain* | Wind** | Luminosity | Snow |
|---|---|---|---|---|---|---|---|
| 1777318598 | 17.78° C | 95% | 1014.4 hPa | 6.1 mm | - | 9 W/m² | - |
| 1777318295 | 18.33° C | 92% | 1014.1 hPa | 4.83 mm | - | 10 W/m² | - |
| 1777317991 | 18.89° C | 89% | 1013.5 hPa | 3.05 mm | - | 10 W/m² | - |
| 1777317689 | 18.89° C | 86% | 1012.9 hPa | 3.05 mm | - | 13 W/m² | - |
| 1777317386 | 18.89° C | 84% | 1012.5 hPa | 1.78 mm | - | 14 W/m² | - |
| 1777317081 | 19.44° C | 83% | 1012.2 hPa | 0 mm | - | 16 W/m² | - |
| 1777316779 | 20° C | 81% | 1012.2 hPa | 0 mm | - | 17 W/m² | - |
| 1777316475 | 20° C | 79% | 1012.4 hPa | 0 mm | - | 18 W/m² | - |
| 1777316172 | 20° C | 78% | 1011.9 hPa | 0 mm | - | 20 W/m² | - |
| 1777315870 | 20.56° C | 77% | 1012.1 hPa | 0 mm | - | 23 W/m² | - |
| 1777315568 | 20.56° C | 76% | 1012.2 hPa | 0 mm | - | 29 W/m² | - |
| 1777315266 | 20.56° C | 77% | 1012.2 hPa | 0 mm | - | 32 W/m² | - |
| 1777314963 | 20° C | 76% | 1012.2 hPa | 0 mm | - | 38 W/m² | - |
| 1777314658 | 20° C | 77% | 1011.9 hPa | 0 mm | - | 42 W/m² | - |
| 1777314355 | 20.56° C | 77% | 1011.8 hPa | 0 mm | - | 49 W/m² | - |
| 1777314053 | 20.56° C | 77% | 1012.1 hPa | 0 mm | - | 57 W/m² | - |
| 1777313750 | 20.56° C | 77% | 1012 hPa | 0 mm | - | 75 W/m² | - |
| 1777313447 | 20.56° C | 76% | 1012 hPa | 0 mm | - | 90 W/m² | - |
| 1777313144 | 20.56° C | 76% | 1012 hPa | 0 mm | - | 111 W/m² | - |
| 1777312840 | 20.56° C | 77% | 1011.9 hPa | 0 mm | - | 125 W/m² | - |
| 1777312537 | 20.56° C | 76% | 1012.1 hPa | 0 mm | - | 137 W/m² | - |
| 1777312234 | 20.56° C | 76% | 1012.3 hPa | 0 mm | - | 138 W/m² | - |
| 1777311931 | 20.56° C | 77% | 1012.2 hPa | 0 mm | - | 115 W/m² | - |
| 1777311628 | 20.56° C | 75% | 1012.8 hPa | 0 mm | - | 102 W/m² | - |
| 1777311326 | 20.56° C | 76% | 1013 hPa | 0 mm | - | 129 W/m² | - |
* Rain latest hour (hover to see other rain measurements)
** Current wind speed in m/s (hover to see current wind gust speed)